Year,Month,Day,Hour,Minute,Value (Times are PST for temperature in C)
2011,07,23,00,00,12.30
2011,07,23,00,01,12.30
2011,07,23,00,02,12.30
2011,07,23,00,03,12.30
2011,07,23,00,04,12.30
2011,07,23,00,05,12.30
2011,07,23,00,06,12.30
2011,07,23,00,07,12.30
2011,07,23,00,08,12.20
2011,07,23,00,09,12.20
2011,07,23,00,10,12.20
2011,07,23,00,11,12.10
2011,07,23,00,12,12.10
2011,07,23,00,13,12.10
2011,07,23,00,14,12.10
2011,07,23,00,15,12.00
2011,07,23,00,16,12.00
2011,07,23,00,17,12.00
2011,07,23,00,18,12.00
2011,07,23,00,19,11.90
2011,07,23,00,20,11.90
2011,07,23,00,21,11.90
2011,07,23,00,22,11.90
2011,07,23,00,23,11.90
2011,07,23,00,24,11.90
2011,07,23,00,25,11.90
2011,07,23,00,26,11.90
2011,07,23,00,27,11.90
2011,07,23,00,28,11.90
2011,07,23,00,29,11.90
2011,07,23,00,30,11.90
2011,07,23,00,31,11.80
2011,07,23,00,32,11.80
2011,07,23,00,33,11.80
2011,07,23,00,34,11.80
2011,07,23,00,35,11.80
2011,07,23,00,36,11.80
2011,07,23,00,37,11.80
2011,07,23,00,38,11.80
2011,07,23,00,39,11.80
2011,07,23,00,40,11.80
2011,07,23,00,41,11.80
2011,07,23,00,42,11.80
2011,07,23,00,43,11.70
2011,07,23,00,44,11.70
2011,07,23,00,45,11.70
2011,07,23,00,46,11.70
2011,07,23,00,47,11.70
2011,07,23,00,48,11.70
2011,07,23,00,49,11.70
2011,07,23,00,50,11.70
2011,07,23,00,51,11.60
2011,07,23,00,52,11.60
2011,07,23,00,53,11.60
2011,07,23,00,54,11.60
2011,07,23,00,55,11.60
2011,07,23,00,56,11.60
2011,07,23,00,57,11.60
2011,07,23,00,58,11.60
2011,07,23,00,59,11.60
2011,07,23,01,00,11.60
2011,07,23,01,01,11.60
2011,07,23,01,02,11.60
2011,07,23,01,03,11.60
2011,07,23,01,04,11.60
2011,07,23,01,05,11.60
2011,07,23,01,06,11.60
2011,07,23,01,07,11.60
2011,07,23,01,08,11.60
2011,07,23,01,09,11.60
2011,07,23,01,10,11.60
2011,07,23,01,11,11.50
2011,07,23,01,12,11.40
2011,07,23,01,13,11.40
2011,07,23,01,14,11.40
2011,07,23,01,15,11.40
2011,07,23,01,16,11.40
2011,07,23,01,17,11.50
2011,07,23,01,18,11.60
2011,07,23,01,19,11.60
2011,07,23,01,20,11.50
2011,07,23,01,21,11.40
2011,07,23,01,22,11.40
2011,07,23,01,23,11.40
2011,07,23,01,24,11.40
2011,07,23,01,25,11.40
2011,07,23,01,26,11.40
2011,07,23,01,27,11.40
2011,07,23,01,28,11.40
2011,07,23,01,29,11.40
2011,07,23,01,30,11.40
2011,07,23,01,31,11.40
2011,07,23,01,32,11.40
2011,07,23,01,33,11.40
2011,07,23,01,34,11.40
2011,07,23,01,35,11.40
2011,07,23,01,36,11.40
2011,07,23,01,37,11.40
2011,07,23,01,38,11.30
2011,07,23,01,39,11.30
2011,07,23,01,40,11.30
2011,07,23,01,41,11.30
2011,07,23,01,42,11.30
2011,07,23,01,43,11.30
2011,07,23,01,44,11.20
2011,07,23,01,45,11.20
2011,07,23,01,46,11.20
2011,07,23,01,47,11.20
2011,07,23,01,48,11.20
2011,07,23,01,49,11.10
2011,07,23,01,50,11.10
2011,07,23,01,51,11.10
2011,07,23,01,52,11.10
2011,07,23,01,53,11.10
2011,07,23,01,54,11.10
2011,07,23,01,55,11.10
2011,07,23,01,56,11.10
2011,07,23,01,57,11.10
2011,07,23,01,58,11.10
2011,07,23,01,59,11.10
2011,07,23,02,00,11.10
2011,07,23,02,01,11.10
2011,07,23,02,02,11.10
2011,07,23,02,03,11.10
2011,07,23,02,04,11.10
2011,07,23,02,05,11.10
2011,07,23,02,06,11.10
2011,07,23,02,07,11.10
2011,07,23,02,08,11.10
2011,07,23,02,09,11.10
2011,07,23,02,10,11.10
2011,07,23,02,11,11.10
2011,07,23,02,12,11.10
2011,07,23,02,13,11.10
2011,07,23,02,14,11.10
2011,07,23,02,15,11.10
2011,07,23,02,16,11.10
2011,07,23,02,17,11.10
2011,07,23,02,18,11.10
2011,07,23,02,19,11.10
2011,07,23,02,20,11.10
2011,07,23,02,21,11.10
2011,07,23,02,22,11.10
2011,07,23,02,23,11.10
2011,07,23,02,24,11.10
2011,07,23,02,25,11.10
2011,07,23,02,26,11.10
2011,07,23,02,27,11.10
2011,07,23,02,28,10.90
2011,07,23,02,29,10.90
2011,07,23,02,30,10.90
2011,07,23,02,31,10.90
2011,07,23,02,32,10.90
2011,07,23,02,33,10.90
2011,07,23,02,34,10.90
2011,07,23,02,35,10.90
2011,07,23,02,36,10.90
2011,07,23,02,37,10.90
2011,07,23,02,38,10.90
2011,07,23,02,39,10.90
2011,07,23,02,40,10.90
2011,07,23,02,41,10.90
2011,07,23,02,42,10.90
2011,07,23,02,43,10.90
2011,07,23,02,44,10.90
2011,07,23,02,45,10.90
2011,07,23,02,46,10.90
2011,07,23,02,47,10.80
2011,07,23,02,48,10.80
2011,07,23,02,49,10.80
2011,07,23,02,50,10.80
2011,07,23,02,51,10.80
2011,07,23,02,52,10.80
2011,07,23,02,53,10.80
2011,07,23,02,54,10.80
2011,07,23,02,55,10.80
2011,07,23,02,56,10.80
2011,07,23,02,57,10.80
2011,07,23,02,58,10.80
2011,07,23,02,59,10.80
2011,07,23,03,00,10.80
2011,07,23,03,01,10.80
2011,07,23,03,02,10.80
2011,07,23,03,03,10.80
2011,07,23,03,04,10.70
2011,07,23,03,05,10.70
2011,07,23,03,06,10.70
2011,07,23,03,07,10.70
2011,07,23,03,08,10.70
2011,07,23,03,09,10.70
2011,07,23,03,10,10.70
2011,07,23,03,11,10.70
2011,07,23,03,12,10.80
2011,07,23,03,13,10.80
2011,07,23,03,14,10.80
2011,07,23,03,15,10.80
2011,07,23,03,16,10.80
2011,07,23,03,17,10.90
2011,07,23,03,18,10.90
2011,07,23,03,19,10.90
2011,07,23,03,20,10.90
2011,07,23,03,21,10.90
2011,07,23,03,22,10.90
2011,07,23,03,23,10.90
2011,07,23,03,24,10.90
2011,07,23,03,25,10.90
2011,07,23,03,26,10.90
2011,07,23,03,27,10.90
2011,07,23,03,28,10.90
2011,07,23,03,29,10.90
2011,07,23,03,30,11.00
2011,07,23,03,31,11.10
2011,07,23,03,32,11.10
2011,07,23,03,33,11.10
2011,07,23,03,34,11.10
2011,07,23,03,35,11.10
2011,07,23,03,36,11.10
2011,07,23,03,37,11.10
2011,07,23,03,38,11.20
2011,07,23,03,39,11.20
2011,07,23,03,40,11.20
2011,07,23,03,41,11.20
2011,07,23,03,42,11.20
2011,07,23,03,43,11.20
2011,07,23,03,44,11.20
2011,07,23,03,45,11.20
2011,07,23,03,46,11.20
2011,07,23,03,47,11.20
2011,07,23,03,48,11.20
2011,07,23,03,49,11.20
2011,07,23,03,50,11.20
2011,07,23,03,51,11.20
2011,07,23,03,52,11.20
2011,07,23,03,53,11.20
2011,07,23,03,54,11.20
2011,07,23,03,55,11.20
2011,07,23,03,56,11.10
2011,07,23,03,57,11.10
2011,07,23,03,58,11.10
2011,07,23,03,59,11.10
2011,07,23,04,00,11.10
2011,07,23,04,01,11.10
2011,07,23,04,02,11.10
2011,07,23,04,03,11.00
2011,07,23,04,04,10.90
2011,07,23,04,05,10.90
2011,07,23,04,06,10.90
2011,07,23,04,07,10.90
2011,07,23,04,08,10.90
2011,07,23,04,09,10.90
2011,07,23,04,10,10.90
2011,07,23,04,11,10.90
2011,07,23,04,12,10.90
2011,07,23,04,13,10.90
2011,07,23,04,14,10.90
2011,07,23,04,15,10.90
2011,07,23,04,16,10.90
2011,07,23,04,17,10.90
2011,07,23,04,18,10.90
2011,07,23,04,19,10.90
2011,07,23,04,20,10.90
2011,07,23,04,21,10.90
2011,07,23,04,22,10.80
2011,07,23,04,23,10.80
2011,07,23,04,24,10.80
2011,07,23,04,25,10.80
2011,07,23,04,26,10.80
2011,07,23,04,27,10.80
2011,07,23,04,28,10.80
2011,07,23,04,29,10.80
2011,07,23,04,30,10.80
2011,07,23,04,31,10.80
2011,07,23,04,32,10.80
2011,07,23,04,33,10.80
2011,07,23,04,34,10.80
2011,07,23,04,35,10.80
2011,07,23,04,36,10.80
2011,07,23,04,37,10.80
2011,07,23,04,38,10.80
2011,07,23,04,39,10.80
2011,07,23,04,40,10.80
2011,07,23,04,41,10.80
2011,07,23,04,42,10.70
2011,07,23,04,43,10.70
2011,07,23,04,44,10.70
2011,07,23,04,45,10.60
2011,07,23,04,46,10.60
2011,07,23,04,47,10.60
2011,07,23,04,48,10.60
2011,07,23,04,49,10.60
2011,07,23,04,50,10.60
2011,07,23,04,51,10.60
2011,07,23,04,52,10.60
2011,07,23,04,53,10.60
2011,07,23,04,54,10.60
2011,07,23,04,55,10.60
2011,07,23,04,56,10.50
2011,07,23,04,57,10.40
2011,07,23,04,58,10.40
2011,07,23,04,59,10.40
2011,07,23,05,00,10.40
2011,07,23,05,01,10.40
2011,07,23,05,02,10.40
2011,07,23,05,03,10.40
2011,07,23,05,04,10.40
2011,07,23,05,05,10.40
2011,07,23,05,06,10.40
2011,07,23,05,07,10.30
2011,07,23,05,08,10.30
2011,07,23,05,09,10.30
2011,07,23,05,10,10.30
2011,07,23,05,11,10.30
2011,07,23,05,12,10.30
2011,07,23,05,13,10.30
2011,07,23,05,14,10.30
2011,07,23,05,15,10.30
2011,07,23,05,16,10.20
2011,07,23,05,17,10.20
2011,07,23,05,18,10.20
2011,07,23,05,19,10.20
2011,07,23,05,20,10.20
2011,07,23,05,21,10.20
2011,07,23,05,22,10.20
2011,07,23,05,23,10.10
2011,07,23,05,24,10.10
2011,07,23,05,25,10.10
2011,07,23,05,26,10.10
2011,07,23,05,27,10.10
2011,07,23,05,28,10.10
2011,07,23,05,29,10.10
2011,07,23,05,30,10.10
2011,07,23,05,31,10.10
2011,07,23,05,32,10.10
2011,07,23,05,33,10.10
2011,07,23,05,34,10.10
2011,07,23,05,35,10.10
2011,07,23,05,36,10.10
2011,07,23,05,37,10.10
2011,07,23,05,38,10.10
2011,07,23,05,39,10.10
2011,07,23,05,40,10.10
2011,07,23,05,41,10.10
2011,07,23,05,42,10.00
2011,07,23,05,43,9.90
2011,07,23,05,44,9.90
2011,07,23,05,45,9.90
2011,07,23,05,46,9.90
2011,07,23,05,47,9.90
2011,07,23,05,48,9.90
2011,07,23,05,49,9.90
2011,07,23,05,50,9.90
2011,07,23,05,51,9.90
2011,07,23,05,52,9.90
2011,07,23,05,53,9.90
2011,07,23,05,54,9.90
2011,07,23,05,55,9.90
2011,07,23,05,56,9.90
2011,07,23,05,57,9.90
2011,07,23,05,58,10.00
2011,07,23,05,59,10.00
2011,07,23,06,00,10.10
2011,07,23,06,01,10.10
2011,07,23,06,02,10.10
2011,07,23,06,03,10.10
2011,07,23,06,04,10.10
2011,07,23,06,05,10.10
2011,07,23,06,06,10.10
2011,07,23,06,07,10.10
2011,07,23,06,08,10.10
2011,07,23,06,09,10.10
2011,07,23,06,10,10.10
2011,07,23,06,11,10.10
2011,07,23,06,12,10.10
2011,07,23,06,13,10.10
2011,07,23,06,14,10.10
2011,07,23,06,15,10.10
2011,07,23,06,16,10.10
2011,07,23,06,17,10.20
2011,07,23,06,18,10.20
2011,07,23,06,19,10.20
2011,07,23,06,20,10.20
2011,07,23,06,21,10.20
2011,07,23,06,22,10.20
2011,07,23,06,23,10.20
2011,07,23,06,24,10.30
2011,07,23,06,25,10.30
2011,07,23,06,26,10.30
2011,07,23,06,27,10.30
2011,07,23,06,28,10.30
2011,07,23,06,29,10.30
2011,07,23,06,30,10.30
2011,07,23,06,31,10.30
2011,07,23,06,32,10.30
2011,07,23,06,33,10.30
2011,07,23,06,34,10.40
2011,07,23,06,35,10.40
2011,07,23,06,36,10.40
2011,07,23,06,37,10.40
2011,07,23,06,38,10.40
2011,07,23,06,39,10.40
2011,07,23,06,40,10.40
2011,07,23,06,41,10.50
2011,07,23,06,42,10.60
2011,07,23,06,43,10.60
2011,07,23,06,44,10.60
2011,07,23,06,45,10.60
2011,07,23,06,46,10.60
2011,07,23,06,47,10.60
2011,07,23,06,48,10.60
2011,07,23,06,49,10.60
2011,07,23,06,50,10.60
2011,07,23,06,51,10.70
2011,07,23,06,52,10.70
2011,07,23,06,53,10.70
2011,07,23,06,54,10.70
2011,07,23,06,55,10.70
2011,07,23,06,56,10.70
2011,07,23,06,57,10.80
2011,07,23,06,58,10.80
2011,07,23,06,59,10.90
2011,07,23,07,00,10.90
2011,07,23,07,01,11.00
2011,07,23,07,02,11.10
2011,07,23,07,03,11.10
2011,07,23,07,04,11.10
2011,07,23,07,05,11.20
2011,07,23,07,06,11.20
2011,07,23,07,07,11.30
2011,07,23,07,08,11.30
2011,07,23,07,09,11.30
2011,07,23,07,10,11.40
2011,07,23,07,11,11.40
2011,07,23,07,12,11.40
2011,07,23,07,13,11.40
2011,07,23,07,14,11.40
2011,07,23,07,15,11.40
2011,07,23,07,16,11.50
2011,07,23,07,17,11.60
2011,07,23,07,18,11.60
2011,07,23,07,19,11.60
2011,07,23,07,20,11.70
2011,07,23,07,21,11.70
2011,07,23,07,22,11.80
2011,07,23,07,23,11.80
2011,07,23,07,24,11.80
2011,07,23,07,25,11.80
2011,07,23,07,26,11.80
2011,07,23,07,27,11.80
2011,07,23,07,28,11.80
2011,07,23,07,29,11.90
2011,07,23,07,30,11.90
2011,07,23,07,31,11.90
2011,07,23,07,32,12.00
2011,07,23,07,33,12.00
2011,07,23,07,34,12.10
2011,07,23,07,35,12.10
2011,07,23,07,36,12.10
2011,07,23,07,37,12.20
2011,07,23,07,38,12.20
2011,07,23,07,39,12.20
2011,07,23,07,40,12.30
2011,07,23,07,41,12.30
2011,07,23,07,42,12.40
2011,07,23,07,43,12.40
2011,07,23,07,44,12.50
2011,07,23,07,45,12.50
2011,07,23,07,46,12.60
2011,07,23,07,47,12.60
2011,07,23,07,48,12.60
2011,07,23,07,49,12.70
2011,07,23,07,50,12.80
2011,07,23,07,51,12.80
2011,07,23,07,52,12.80
2011,07,23,07,53,12.90
2011,07,23,07,54,13.00
2011,07,23,07,55,13.00
2011,07,23,07,56,13.10
2011,07,23,07,57,13.10
2011,07,23,07,58,13.20
2011,07,23,07,59,13.30
2011,07,23,08,00,13.30
2011,07,23,08,01,13.40
2011,07,23,08,02,13.50
2011,07,23,08,03,13.60
2011,07,23,08,04,13.60
2011,07,23,08,05,13.70
2011,07,23,08,06,13.70
2011,07,23,08,07,13.70
2011,07,23,08,08,13.70
2011,07,23,08,09,13.80
2011,07,23,08,10,13.80
2011,07,23,08,11,13.80
2011,07,23,08,12,13.90
2011,07,23,08,13,13.90
2011,07,23,08,14,14.00
2011,07,23,08,15,13.90
2011,07,23,08,16,13.90
2011,07,23,08,17,13.90
2011,07,23,08,18,13.90
2011,07,23,08,19,14.00
2011,07,23,08,20,13.90
2011,07,23,08,21,13.90
2011,07,23,08,22,13.90
2011,07,23,08,23,13.80
2011,07,23,08,24,13.80
2011,07,23,08,25,13.80
2011,07,23,08,26,13.70
2011,07,23,08,27,13.60
2011,07,23,08,28,13.60
2011,07,23,08,29,13.50
2011,07,23,08,30,13.50
2011,07,23,08,31,13.40
2011,07,23,08,32,13.40
2011,07,23,08,33,13.40
2011,07,23,08,34,13.40
2011,07,23,08,35,13.40
2011,07,23,08,36,13.30
2011,07,23,08,37,13.30
2011,07,23,08,38,13.30
2011,07,23,08,39,13.30
2011,07,23,08,40,13.30
2011,07,23,08,41,13.30
2011,07,23,08,42,13.40
2011,07,23,08,43,13.40
2011,07,23,08,44,13.40
2011,07,23,08,45,13.40
2011,07,23,08,46,13.50
2011,07,23,08,47,13.60
2011,07,23,08,48,13.50
2011,07,23,08,49,13.50
2011,07,23,08,50,13.60
2011,07,23,08,51,13.70
2011,07,23,08,52,13.70
2011,07,23,08,53,13.80
2011,07,23,08,54,13.90
2011,07,23,08,55,14.00
2011,07,23,08,56,14.20
2011,07,23,08,57,14.20
2011,07,23,08,58,14.30
2011,07,23,08,59,14.30
2011,07,23,09,00,14.40
2011,07,23,09,01,14.50
2011,07,23,09,02,14.60
2011,07,23,09,03,14.70
2011,07,23,09,04,14.80
2011,07,23,09,05,14.90
2011,07,23,09,06,14.90
2011,07,23,09,07,15.10
2011,07,23,09,08,15.10
2011,07,23,09,09,15.30
2011,07,23,09,10,15.30
2011,07,23,09,11,15.40
2011,07,23,09,12,15.50
2011,07,23,09,13,15.50
2011,07,23,09,14,15.60
2011,07,23,09,15,15.60
2011,07,23,09,16,15.70
2011,07,23,09,17,15.70
2011,07,23,09,18,15.80
2011,07,23,09,19,15.80
2011,07,23,09,20,15.80
2011,07,23,09,21,15.80
2011,07,23,09,22,15.80
2011,07,23,09,23,15.80
2011,07,23,09,24,15.80
2011,07,23,09,25,15.80
2011,07,23,09,26,15.80
2011,07,23,09,27,15.80
2011,07,23,09,28,15.80
2011,07,23,09,29,15.80
2011,07,23,09,30,15.80
2011,07,23,09,31,15.80
2011,07,23,09,32,15.90
2011,07,23,09,33,16.10
2011,07,23,09,34,16.10
2011,07,23,09,35,16.10
2011,07,23,09,36,16.10
2011,07,23,09,37,16.10
2011,07,23,09,38,16.10
2011,07,23,09,39,16.30
2011,07,23,09,40,16.30
2011,07,23,09,41,16.30
2011,07,23,09,42,16.40
2011,07,23,09,43,16.30
2011,07,23,09,44,16.40
2011,07,23,09,45,16.40
2011,07,23,09,46,16.50
2011,07,23,09,47,16.60
2011,07,23,09,48,16.70
2011,07,23,09,49,16.70
2011,07,23,09,50,16.60
2011,07,23,09,51,16.70
2011,07,23,09,52,16.70
2011,07,23,09,53,16.70
2011,07,23,09,54,16.70
2011,07,23,09,55,16.70
2011,07,23,09,56,16.60
2011,07,23,09,57,16.60
2011,07,23,09,58,16.60
2011,07,23,09,59,16.50
2011,07,23,10,00,16.40
2011,07,23,10,01,16.40
2011,07,23,10,02,16.50
2011,07,23,10,03,16.60
2011,07,23,10,04,16.50
2011,07,23,10,05,16.40
2011,07,23,10,06,16.40
2011,07,23,10,07,16.60
2011,07,23,10,08,16.60
2011,07,23,10,09,16.50
2011,07,23,10,10,16.40
2011,07,23,10,11,16.40
2011,07,23,10,12,16.40
2011,07,23,10,13,16.40
2011,07,23,10,14,16.40
2011,07,23,10,15,16.40
2011,07,23,10,16,16.40
2011,07,23,10,17,16.40
2011,07,23,10,18,16.40
2011,07,23,10,19,16.50
2011,07,23,10,20,16.60
2011,07,23,10,21,16.60
2011,07,23,10,22,16.50
2011,07,23,10,23,16.40
2011,07,23,10,24,16.40
2011,07,23,10,25,16.40
2011,07,23,10,26,16.50
2011,07,23,10,27,16.50
2011,07,23,10,28,16.40
2011,07,23,10,29,16.40
2011,07,23,10,30,16.60
2011,07,23,10,31,16.70
2011,07,23,10,32,16.80
2011,07,23,10,33,16.90
2011,07,23,10,34,17.00
2011,07,23,10,35,17.10
2011,07,23,10,36,17.00
2011,07,23,10,37,16.90
2011,07,23,10,38,16.80
2011,07,23,10,39,16.70
2011,07,23,10,40,16.60
2011,07,23,10,41,16.50
2011,07,23,10,42,16.40
2011,07,23,10,43,16.40
2011,07,23,10,44,16.30
2011,07,23,10,45,16.30
2011,07,23,10,46,16.30
2011,07,23,10,47,16.30
2011,07,23,10,48,16.30
2011,07,23,10,49,16.30
2011,07,23,10,50,16.30
2011,07,23,10,51,16.40
2011,07,23,10,52,16.40
2011,07,23,10,53,16.30
2011,07,23,10,54,16.30
2011,07,23,10,55,16.40
2011,07,23,10,56,16.50
2011,07,23,10,57,16.60
2011,07,23,10,58,16.70
2011,07,23,10,59,16.80
2011,07,23,11,00,16.80
2011,07,23,11,01,16.90
2011,07,23,11,02,17.00
2011,07,23,11,03,17.10
2011,07,23,11,04,17.20
2011,07,23,11,05,17.30
2011,07,23,11,06,17.30
2011,07,23,11,07,17.20
2011,07,23,11,08,17.30
2011,07,23,11,09,17.30
2011,07,23,11,10,17.20
2011,07,23,11,11,17.20
2011,07,23,11,12,17.20
2011,07,23,11,13,17.10
2011,07,23,11,14,17.10
2011,07,23,11,15,17.20
2011,07,23,11,16,17.30
2011,07,23,11,17,17.40
2011,07,23,11,18,17.50
2011,07,23,11,19,17.50
2011,07,23,11,20,17.40
2011,07,23,11,21,17.50
2011,07,23,11,22,17.60
2011,07,23,11,23,17.70
2011,07,23,11,24,17.80
2011,07,23,11,25,17.90
2011,07,23,11,26,18.10
2011,07,23,11,27,18.00
2011,07,23,11,28,17.90
2011,07,23,11,29,17.90
2011,07,23,11,30,17.70
2011,07,23,11,31,17.70
2011,07,23,11,32,17.80
2011,07,23,11,33,17.70
2011,07,23,11,34,17.70
2011,07,23,11,35,17.60
2011,07,23,11,36,17.40
2011,07,23,11,37,17.30
2011,07,23,11,38,17.30
2011,07,23,11,39,17.10
2011,07,23,11,40,17.00
2011,07,23,11,41,17.00
2011,07,23,11,42,17.00
2011,07,23,11,43,16.80
2011,07,23,11,44,16.70
2011,07,23,11,45,16.50
2011,07,23,11,46,16.40
2011,07,23,11,47,16.40
2011,07,23,11,48,16.40
2011,07,23,11,49,16.40
2011,07,23,11,50,16.40
2011,07,23,11,51,16.40
2011,07,23,11,52,16.40
2011,07,23,11,53,16.50
2011,07,23,11,54,16.60
2011,07,23,11,55,16.60
2011,07,23,11,56,16.50
2011,07,23,11,57,16.40
2011,07,23,11,58,16.40
2011,07,23,11,59,16.60
2011,07,23,12,00,16.70
2011,07,23,12,01,16.70
2011,07,23,12,02,16.80
2011,07,23,12,03,16.90
2011,07,23,12,04,17.10
2011,07,23,12,05,17.30
2011,07,23,12,06,17.30
2011,07,23,12,07,17.30
2011,07,23,12,08,17.30
2011,07,23,12,09,17.40
2011,07,23,12,10,17.50
2011,07,23,12,11,17.60
2011,07,23,12,12,17.70
2011,07,23,12,13,17.80
2011,07,23,12,14,17.80
2011,07,23,12,15,17.70
2011,07,23,12,16,17.70
2011,07,23,12,17,17.60
2011,07,23,12,18,17.50
2011,07,23,12,19,17.50
2011,07,23,12,20,17.50
2011,07,23,12,21,17.50
2011,07,23,12,22,17.50
2011,07,23,12,23,17.60
2011,07,23,12,24,17.60
2011,07,23,12,25,17.40
2011,07,23,12,26,17.30
2011,07,23,12,27,17.30
2011,07,23,12,28,17.30
2011,07,23,12,29,17.20
2011,07,23,12,30,17.10
2011,07,23,12,31,17.00
2011,07,23,12,32,17.00
2011,07,23,12,33,17.10
2011,07,23,12,34,17.20
2011,07,23,12,35,17.10
2011,07,23,12,36,17.10
2011,07,23,12,37,17.10
2011,07,23,12,38,17.30
2011,07,23,12,39,17.40
2011,07,23,12,40,17.50
2011,07,23,12,41,17.70
2011,07,23,12,42,17.90
2011,07,23,12,43,17.90
2011,07,23,12,44,18.00
2011,07,23,12,45,18.10
2011,07,23,12,46,18.20
2011,07,23,12,47,18.20
2011,07,23,12,48,18.20
2011,07,23,12,49,18.10
2011,07,23,12,50,17.90
2011,07,23,12,51,17.80
2011,07,23,12,52,17.70
2011,07,23,12,53,17.70
2011,07,23,12,54,17.70
2011,07,23,12,55,17.70
2011,07,23,12,56,17.60
2011,07,23,12,57,17.60
2011,07,23,12,58,17.60
2011,07,23,12,59,17.50
2011,07,23,13,00,17.60
2011,07,23,13,01,17.70
2011,07,23,13,02,17.70
2011,07,23,13,03,17.50
2011,07,23,13,04,17.50
2011,07,23,13,05,17.40
2011,07,23,13,06,17.40
2011,07,23,13,07,17.50
2011,07,23,13,08,17.60
2011,07,23,13,09,17.70
2011,07,23,13,10,17.80
2011,07,23,13,11,17.90
2011,07,23,13,12,18.00
2011,07,23,13,13,18.10
2011,07,23,13,14,18.10
2011,07,23,13,15,18.20
2011,07,23,13,16,18.20
2011,07,23,13,17,18.30
2011,07,23,13,18,18.30
2011,07,23,13,19,18.30
2011,07,23,13,20,18.40
2011,07,23,13,21,18.40
2011,07,23,13,22,18.50
2011,07,23,13,23,18.50
2011,07,23,13,24,18.50
2011,07,23,13,25,18.50
2011,07,23,13,26,18.50
2011,07,23,13,27,18.60
2011,07,23,13,28,18.60
2011,07,23,13,29,18.50
2011,07,23,13,30,18.50
2011,07,23,13,31,18.50
2011,07,23,13,32,18.40
2011,07,23,13,33,18.40
2011,07,23,13,34,18.40
2011,07,23,13,35,18.50
2011,07,23,13,36,18.60
2011,07,23,13,37,18.50
2011,07,23,13,38,18.50
2011,07,23,13,39,18.60
2011,07,23,13,40,18.60
2011,07,23,13,41,18.70
2011,07,23,13,42,18.80
2011,07,23,13,43,18.80
2011,07,23,13,44,18.70
2011,07,23,13,45,18.60
2011,07,23,13,46,18.50
2011,07,23,13,47,18.50
2011,07,23,13,48,18.40
2011,07,23,13,49,18.40
2011,07,23,13,50,18.50
2011,07,23,13,51,18.50
2011,07,23,13,52,18.60
2011,07,23,13,53,18.60
2011,07,23,13,54,18.70
2011,07,23,13,55,18.70
2011,07,23,13,56,18.60
2011,07,23,13,57,18.60
2011,07,23,13,58,18.60
2011,07,23,13,59,18.70
2011,07,23,14,00,18.60
2011,07,23,14,01,18.60
2011,07,23,14,02,18.60
2011,07,23,14,03,18.60
2011,07,23,14,04,18.50
2011,07,23,14,05,18.50
2011,07,23,14,06,18.50
2011,07,23,14,07,18.60
2011,07,23,14,08,18.60
2011,07,23,14,09,18.60
2011,07,23,14,10,18.70
2011,07,23,14,11,18.70
2011,07,23,14,12,18.70
2011,07,23,14,13,18.80
2011,07,23,14,14,18.80
2011,07,23,14,15,18.80
2011,07,23,14,16,18.90
2011,07,23,14,17,18.90
2011,07,23,14,18,18.90
2011,07,23,14,19,19.00
2011,07,23,14,20,19.10
2011,07,23,14,21,19.10
2011,07,23,14,22,19.20
2011,07,23,14,23,19.20
2011,07,23,14,24,19.20
2011,07,23,14,25,19.30
2011,07,23,14,26,19.30
2011,07,23,14,27,19.30
2011,07,23,14,28,19.30
2011,07,23,14,29,19.40
2011,07,23,14,30,19.40
2011,07,23,14,31,19.30
2011,07,23,14,32,19.30
2011,07,23,14,33,19.10
2011,07,23,14,34,19.10
2011,07,23,14,35,19.10
2011,07,23,14,36,19.10
2011,07,23,14,37,19.10
2011,07,23,14,38,19.20
2011,07,23,14,39,19.20
2011,07,23,14,40,19.30
2011,07,23,14,41,19.30
2011,07,23,14,42,19.20
2011,07,23,14,43,19.20
2011,07,23,14,44,19.20
2011,07,23,14,45,19.10
2011,07,23,14,46,19.20
2011,07,23,14,47,19.20
2011,07,23,14,48,19.30
2011,07,23,14,49,19.30
2011,07,23,14,50,19.30
2011,07,23,14,51,19.30
2011,07,23,14,52,19.30
2011,07,23,14,53,19.40
2011,07,23,14,54,19.40
2011,07,23,14,55,19.40
2011,07,23,14,56,19.30
2011,07,23,14,57,19.30
2011,07,23,14,58,19.30
2011,07,23,14,59,19.30
2011,07,23,15,00,19.30
2011,07,23,15,01,19.30
2011,07,23,15,02,19.20
2011,07,23,15,03,19.10
2011,07,23,15,04,19.10
2011,07,23,15,05,19.10
2011,07,23,15,06,19.10
2011,07,23,15,07,19.10
2011,07,23,15,08,19.20
2011,07,23,15,09,19.30
2011,07,23,15,10,19.30
2011,07,23,15,11,19.40
2011,07,23,15,12,19.60
2011,07,23,15,13,19.80
2011,07,23,15,14,19.80
2011,07,23,15,15,19.80
2011,07,23,15,16,19.70
2011,07,23,15,17,19.70
2011,07,23,15,18,19.70
2011,07,23,15,19,19.70
2011,07,23,15,20,19.80
2011,07,23,15,21,19.80
2011,07,23,15,22,19.80
2011,07,23,15,23,19.90
2011,07,23,15,24,19.90
2011,07,23,15,25,19.90
2011,07,23,15,26,19.90
2011,07,23,15,27,19.90
2011,07,23,15,28,20.00
2011,07,23,15,29,20.10
2011,07,23,15,30,20.20
2011,07,23,15,31,20.20
2011,07,23,15,32,20.20
2011,07,23,15,33,20.20
2011,07,23,15,34,20.30
2011,07,23,15,35,20.30
2011,07,23,15,36,20.40
2011,07,23,15,37,20.40
2011,07,23,15,38,20.40
2011,07,23,15,39,20.40
2011,07,23,15,40,20.50
2011,07,23,15,41,20.50
2011,07,23,15,42,20.50
2011,07,23,15,43,20.50
2011,07,23,15,44,20.60
2011,07,23,15,45,20.60
2011,07,23,15,46,20.60
2011,07,23,15,47,20.60
2011,07,23,15,48,20.70
2011,07,23,15,49,20.70
2011,07,23,15,50,20.80
2011,07,23,15,51,20.80
2011,07,23,15,52,20.80
2011,07,23,15,53,20.80
2011,07,23,15,54,20.80
2011,07,23,15,55,20.70
2011,07,23,15,56,20.60
2011,07,23,15,57,20.50
2011,07,23,15,58,20.40
2011,07,23,15,59,20.30
2011,07,23,16,00,20.20
2011,07,23,16,01,20.20
2011,07,23,16,02,20.20
2011,07,23,16,03,20.20
2011,07,23,16,04,20.20
2011,07,23,16,05,20.30
2011,07,23,16,06,20.30
2011,07,23,16,07,20.40
2011,07,23,16,08,20.40
2011,07,23,16,09,20.40
2011,07,23,16,10,20.50
2011,07,23,16,11,20.70
2011,07,23,16,12,20.70
2011,07,23,16,13,20.80
2011,07,23,16,14,20.80
2011,07,23,16,15,20.80
2011,07,23,16,16,20.90
2011,07,23,16,17,21.00
2011,07,23,16,18,21.00
2011,07,23,16,19,20.90
2011,07,23,16,20,20.90
2011,07,23,16,21,20.90
2011,07,23,16,22,20.90
2011,07,23,16,23,20.90
2011,07,23,16,24,20.80
2011,07,23,16,25,20.70
2011,07,23,16,26,20.70
2011,07,23,16,27,20.70
2011,07,23,16,28,20.80
2011,07,23,16,29,20.70
2011,07,23,16,30,20.70
2011,07,23,16,31,20.80
2011,07,23,16,32,20.80
2011,07,23,16,33,20.90
2011,07,23,16,34,20.90
2011,07,23,16,35,20.90
2011,07,23,16,36,20.90
2011,07,23,16,37,21.00
2011,07,23,16,38,21.00
2011,07,23,16,39,21.00
2011,07,23,16,40,21.00
2011,07,23,16,41,21.00
2011,07,23,16,42,21.00
2011,07,23,16,43,21.00
2011,07,23,16,44,21.00
2011,07,23,16,45,21.00
2011,07,23,16,46,21.00
2011,07,23,16,47,21.10
2011,07,23,16,48,21.20
2011,07,23,16,49,21.30
2011,07,23,16,50,21.40
2011,07,23,16,51,21.40
2011,07,23,16,52,21.50
2011,07,23,16,53,21.60
2011,07,23,16,54,21.60
2011,07,23,16,55,21.60
2011,07,23,16,56,21.60
2011,07,23,16,57,21.60
2011,07,23,16,58,21.70
2011,07,23,16,59,21.70
2011,07,23,17,00,21.80
2011,07,23,17,01,21.80
2011,07,23,17,02,21.80
2011,07,23,17,03,21.80
2011,07,23,17,04,21.80
2011,07,23,17,05,21.80
2011,07,23,17,06,21.80
2011,07,23,17,07,21.80
2011,07,23,17,08,21.80
2011,07,23,17,09,21.80
2011,07,23,17,10,21.70
2011,07,23,17,11,21.60
2011,07,23,17,12,21.60
2011,07,23,17,13,21.60
2011,07,23,17,14,21.50
2011,07,23,17,15,21.40
2011,07,23,17,16,21.30
2011,07,23,17,17,21.30
2011,07,23,17,18,21.30
2011,07,23,17,19,21.30
2011,07,23,17,20,21.20